Location: Asheville, NC
(35.6000°N, 82.5500°W)
Time: 16:01:08
(UTC-04:00)

NUDT-PHONESAT - Pass Details

Date: 12 January 2018
Orbit: 492 x 511 km, 97.4° (Epoch: 22 June)

Event Time Altitude Azimuth Distance (km) Brightness Sun altitude
Rises 06:25:09 0° 20° (NNE) 2,609 ? -15.0°
Reaches altitude 10° 06:27:21 10° 28° (NNE) 1,715 ? -14.5°
Maximum altitude 06:30:51 40° 99° (E) 748 ? -13.9°
Drops below altitude 10° 06:34:17 10° 170° (S) 1,690 ? -13.2°
Sets 06:36:26 0° 177° (S) 2,565 ? -12.8°
